Regional Weather Roundup
Issued by NWS Sterling, VA

Home | Current Version | Previous Version | Text Only | Print | Product List | Glossary Off
Versions: 1 2 3 4 5 6 7 8 9 10 11 12 13 14 15 16 17 18 19 20 21 22 23 24 25 26 27 28 29 30 31 32 33 34 35 36 37 38 39 40 41 42 43 44 45 46 47 48 49 50

000
ASUS41 KLWX 011110
RWRLWX

REGIONAL WEATHER ROUNDUP
NATIONAL WEATHER SERVICE BALTIMORE MD/WASHINGTON DC
700 AM EDT FRI AUG 01 2014

Note: "FAIR" indicates few or no clouds below 12,000 feet
with no significant weather and/or obstructions to visibility.
 TC=TEMPERATURE CELSIUS

 * =Non NWS site. Station does not report precipitation (e.g. rain,
    snow, etc.), thunder, or fog.

DCZ001-MDZ009-015-VAZ040>042-051-053>054-011200-
WASHINGTON METRO
  /KDAA//-FT BELVOIR

CITY           SKY/WX    TMP DP  RH WIND       PRES   REMARKS
WASHINGTON NAT CLOUDY    76  67  73 S10       30.16R
DULLES         CLOUDY    70  65  84 S3        30.16R
ANDREWS AFB    CLOUDY    71  68  90 S9        30.16R
QUANTICO       LGT RAIN  74  69  85 S14       30.18R
COLLEGE PARK*  CLOUDY    72  70  94 S3        30.16R
LEESBURG*      CLOUDY    68  68 100 CALM      30.17R
MANASSAS*      CLEAR     70  70 100 SE5       30.16R
GAITHERSBURG*  CLOUDY    68  64  88 SE5       30.20R

$$

MDZ006>007-011-014-011200-
BALTIMORE METRO

CITY           SKY/WX    TMP DP  RH WIND       PRES   REMARKS
BWI AIRPORT    CLOUDY    71  68  90 CALM      30.16R
MD SCIENCE CTR   N/A     74  68  81 MISG      30.16R
MARTIN STATE   MOCLDY    75  72  88 S6        30.17R
ANNAPOLIS      CLOUDY    74  66  76 S6        30.16R
FORT MEADE*    CLOUDY    64  63  94 CALM      30.18R

$$

MDZ012-015-019>023-011200-
MARYLAND EASTERN SHORE

CITY           SKY/WX    TMP DP  RH WIND       PRES   REMARKS
OCEAN CITY     CLOUDY    71  68  90 CALM      30.16S FOG
SALISBURY      CLOUDY    71  66  84 CALM      30.17R
BAY BRIDGE AP*   N/A     73  66  78 S5        30.17R
CAMBRIDGE*     CLOUDY    72  64  78 CALM      30.16R
EASTON*        CLOUDY    73  73 100 CALM      30.20R

$$

MDZ017>025-011200-
SOUTHERN MARYLAND

CITY           SKY/WX    TMP DP  RH WIND       PRES   REMARKS
PATUXENT RIVER CLOUDY    71  66  84 CALM      30.16R
ST INIGOES     CLOUDY    72  64  76 CALM      30.16R
LEONARDTOWN*   CLOUDY    70  64  83 CALM      30.19R

$$

MDZ003>005-011200-
NORTH CENTRAL MARYLAND

CITY           SKY/WX    TMP DP  RH WIND       PRES   REMARKS
FREDERICK*     CLEAR     64  64 100 CALM      30.18R FOG
HAGERSTOWN APT CLOUDY    66  61  84 CALM      30.16R
WESTMINSTER*   CLOUDY    70  66  88 CALM      30.17S

$$

MDZ501>502-011200-
WESTERN MARYLAND

CITY           SKY/WX    TMP DP  RH WIND       PRES   REMARKS
OAKLAND*       MOCLDY    59  59 100 SE3       30.22S
CUMBERLAND*    MOCLDY    61  57  88 CALM      30.22R

$$

VAZ025>031-011200-
SHENANDOAH VALLEY

CITY           SKY/WX    TMP DP  RH WIND       PRES   REMARKS
WINCHESTER*    CLOUDY    63  61  94 CALM      30.16R FOG
STAUNTON*      CLOUDY    67  63  86 S3        30.21R

$$

WVZ021-048>050-054>055-011200-
EASTERN WEST VIRGINIA PANHANDLE

CITY           SKY/WX    TMP DP  RH WIND       PRES   REMARKS
MARTINSBURG    CLOUDY    63  59  87 CALM      30.16R FOG
PETERSBURG*    CLOUDY    60  56  88 CALM      30.19R FOG

$$

VAZ036>039-050-011200-
CENTRAL FOOTHILLS

CITY           SKY/WX    TMP DP  RH WIND       PRES   REMARKS
CHARLOTTESVILL LGT RAIN  69  65  86 SW5       30.18R
ORANGE*        DRIZZLE   68  64  88 CALM      30.19R

$$

VAZ055>057-011200-
NORTH AND CENTRAL PIEDMONT

CITY           SKY/WX    TMP DP  RH WIND       PRES   REMARKS
FREDERICKSBRG* CLOUDY    71  71  99 CALM      30.16R
STAFFORD*      LGT RAIN  70  70 100 CALM      30.21R

$$

NCZ024-NYZ072-PAZ021-071-VAZ022-071-011200-
OTHER REGIONAL OBSERVATIONS

CITY           SKY/WX    TMP DP  RH WIND       PRES   REMARKS
NEW YORK CITY  SUNNY     72  64  76 VRB3      30.21R
PHILADELPHIA   PTSUNNY   73  66  78 S6        30.17S
PITTSBURGH     CLOUDY    61  58  90 CALM      30.15R
ROANOKE        LGT RAIN  66  64  93 SE6       30.21R
RICHMOND       LGT RAIN  72  67  84 CALM      30.18R
RALEIGH        CLOUDY    70  67  90 NE8       30.13R FOG

$$

ANZ530>537-011200-
MARINE OBSERVATIONS

STATION/POSITION TIME  TEMP    WIND        PRES
                       AIR SEA DIR/SP/G
                 (UTC) (F)     (DEG/KT/KT) (MB)
THOMAS PT LIGHT  1100   75 77  200/ 15/ 16 1021.9R
BALT KEY BRIDGE  1100   84     190/  7/  8 1020.8R
COVE POINT       1100   73     210/  6/  7 1021.4R
LEWISETTA        1100   72 78  230/  3/  4 1021.3R
SOLOMONS ISLAND  1100      79                N/A
PINEY POINT      1100          220/  5/  6   N/A

$$



USA.gov is the U.S. government's official web portal to all federal, state and local government web resources and services.